[[{"header":{"parameterUnit":"m.s-1","parameterCategory":1,"la1":30.2991,"la2":30.254,"lo1":-89.0895,"lo2":-89.0444,"dy":0.0017,"dx":0.0017,"nx":28,"ny":28,"refTime":"2023-11-03T03:00:00:Z","depth":0,"parameterNumber":2,"parameterNumberName":"U-component_of_WINDS"},"data":[0,0,0,0,0,0,0,0,0,0,0,0,0,0,0,0,0,0,0,0,0,0,0,0,0,0,0,0,0,0,0,0,0,0,0,0,0,0,0,0,0,0,0,0,0,0,0,0,0,0,0,0,0,0,0,0,0,0,1.056,1.056,0,1.0555,1.0555,1.0555,1.0558,1.0558,1.0559,1.0559,1.0552,1.0552,1.0552,0,0,0,0,0,0,0,0,0,0,0,0,0,1.0572,1.0572,1.056,1.056,1.056,1.0555,1.0555,1.0555,1.0558,1.0558,1.0559,1.0559,1.0552,1.0552,1.0552,0,0,0,0,0,0,0,0,0,0,0,0,0,1.0567,1.0572,1.056,1.0561,1.0561,1.0555,1.0555,1.0555,1.0558,1.0558,1.0559,1.0559,1.0553,1.0552,1.0552,1.0544,0,0,1.055,1.055,0,0,0,0,0,0,0,0,1.0567,1.0567,1.0561,1.0561,1.0561,1.0557,1.0557,1.0551,1.0558,1.0559,1.0559,1.0559,1.0554,1.0553,1.0552,1.0543,1.0543,1.055,1.055,1.055,1.0549,0,0,0,0,0,0,0,1.0568,1.0567,1.0558,1.0561,1.0561,1.0561,1.0561,1.0555,1.0555,1.0559,1.056,1.0559,1.0554,1.0552,1.0551,1.0543,1.055,1.055,1.0549,1.0549,1.0525,1.0525,0,0,0,0,0,0,1.0568,1.0567,1.0558,1.0558,1.0565,1.0561,1.056,1.0558,1.0555,1.0555,1.0559,1.0559,1.0553,1.0552,1.0551,1.054,1.055,1.0549,1.0549,1.0525,1.0525,1.0524,0,0,0,0,0,0,1.0568,1.0567,1.0559,1.0563,1.0562,1.0561,1.0558,1.0558,1.0556,1.0555,1.0555,1.0557,1.0553,1.0552,1.0545,1.054,1.0549,1.0548,1.0526,1.0525,1.0525,1.0518,0,0,0,0,0,0,1.0569,1.0567,1.0565,1.0563,1.0561,1.0553,1.0558,1.0558,1.0556,1.0556,1.0553,1.0553,1.0553,1.0546,1.0544,1.0539,1.0548,1.0526,1.0525,1.0525,1.0519,1.0517,1.0516,0,0,0,0,0,1.0569,1.0564,1.0565,1.0564,1.0558,1.0553,1.0552,1.0552,1.0555,1.0552,1.0551,1.0553,1.0541,1.0545,1.0544,1.0538,1.0526,1.0526,1.0525,1.0519,1.0518,1.0516,0,0,0,0,0,0,1.0566,1.0564,1.0565,1.0559,1.0556,1.0553,1.055,1.0551,1.0547,1.0548,1.0548,1.0547,1.054,1.0538,1.0543,1.0529,1.0534,1.0533,1.053,1.0528,1.0527,1.0527,1.0548,0,0,0,0,0,1.0565,1.0561,1.0559,1.0553,1.0552,1.0551,1.0549,1.0549,1.0546,1.0545,1.0543,1.054,1.0535,1.0532,1.0527,1.0519,1.0517,1.0514,1.0513,1.0512,1.0511,1.0503,1.0502,1.0522,1.0522,1.0522,0,0,1.0562,1.056,1.0558,1.0553,1.0551,1.0545,1.055,1.0545,1.0541,1.0544,1.0537,1.0535,1.0531,1.0523,1.0519,1.0521,1.0504,1.0511,1.051,1.0509,1.0502,1.05,1.0499,1.0521,1.0521,1.0522,0,0,1.0554,1.0553,1.0547,1.0545,1.0541,1.054,1.0539,1.0535,1.0534,1.0527,1.0528,1.0523,1.0515,1.0512,1.0509,1.0497,1.0498,1.0496,1.0489,1.0482,1.0481,1.0479,1.0473,1.0471,1.0495,1.0495,1.0495,0,1.0551,1.0544,1.0544,1.0539,1.0535,1.0537,1.0531,1.0528,1.0523,1.0521,1.0524,1.0512,1.051,1.0499,1.0496,1.0495,1.0492,1.0496,1.0481,1.0479,1.0478,1.0472,1.047,1.0494,1.0494,1.0495,1.0495,0,1.0539,1.0534,1.053,1.0525,1.0521,1.0515,1.0513,1.051,1.051,1.0508,1.0499,1.0496,1.049,1.0488,1.0489,1.0477,1.0478,1.0481,1.0486,1.0476,1.047,1.0468,1.0494,1.0494,1.0494,1.0494,0,0,1.0531,1.0524,1.0522,1.0519,1.0514,1.0509,1.0503,1.0496,1.0492,1.0488,1.0482,1.0474,1.0475,1.0472,1.0472,1.0466,1.0454,1.0469,1.0469,1.0465,1.0439,1.0436,1.0434,1.0455,1.0455,1.0455,1.0439,0,1.0522,1.051,1.0509,1.0498,1.0492,1.0492,1.0486,1.0482,1.0479,1.0473,1.0471,1.0465,1.0468,1.0466,1.046,1.0457,1.0449,1.0458,1.0448,1.0447,1.0447,1.0431,1.0429,1.0414,1.0437,1.0436,1.0436,0,1.051,1.0504,1.0493,1.0486,1.0484,1.0478,1.0471,1.0466,1.046,1.0458,1.0453,1.0453,1.0445,1.045,1.0437,1.0444,1.0439,1.0437,1.0436,1.0434,1.044,1.0427,1.0409,1.0406,1.0433,1.0433,1.0433,0,1.0503,1.0493,1.0484,1.0481,1.0474,1.0469,1.0466,1.046,1.0456,1.0449,1.0446,1.0439,1.0434,1.0428,1.0426,1.043,1.0412,1.0418,1.0409,1.0409,1.0405,1.0406,1.0385,1.0404,1.0404,1.0404,1.0405,0,1.0492,1.0485,1.048,1.0475,1.0465,1.0463,1.0454,1.0451,1.0445,1.0438,1.0438,1.0431,1.0429,1.0421,1.0419,1.0407,1.0406,1.0403,1.0403,1.0403,1.0403,1.0399,1.04,1.0404,1.0404,1.0404,1.0404,0,1.0483,1.048,1.047,1.0463,1.0461,1.0454,1.0448,1.0442,1.0439,1.0429,1.0427,1.0422,1.0413,1.0409,1.0399,1.0397,1.0383,1.0384,1.0385,1.0384,1.0375,1.0376,1.0351,1.0346,1.037,1.037,1.037,0,1.0477,1.0471,1.0462,1.0457,1.0454,1.0446,1.0441,1.0438,1.0432,1.0423,1.0418,1.0408,1.04,1.0385,1.038,1.0371,1.0371,1.0362,1.0369,1.0369,1.0368,1.0368,1.0367,1.0361,1.0361,1.0361,1.036,0,1.0465,1.0462,1.0455,1.0446,1.044,1.0433,1.0426,1.0422,1.0418,1.0411,1.0401,1.0395,1.0382,1.0372,1.0362,1.0358,1.0358,1.0358,1.0355,1.0355,1.0355,1.0353,1.038,1.0359,1.0359,1.0359,1.0359,1.0359,1.0456,1.0449,1.0442,1.0433,1.0427,1.042,1.0413,1.0408,1.04,1.0389,1.0388,1.0376,1.0368,1.0354,1.0349,1.0339,1.0342,1.0338,1.0337,1.0336,1.0334,1.0357,1.0338,1.0338,1.0338,1.0338,1.0338,0,1.0442,1.0437,1.0428,1.0418,1.041,1.041,1.0402,1.0395,1.0385,1.0378,1.0369,1.0356,1.0346,1.0339,1.0328,1.0321,1.032,1.0318,1.0318,1.0316,1.0334,1.0337,1.0319,1.0319,1.0319,1.0319,1.0319,1.0319,1.0434,1.0423,1.0419,1.0404,1.0398,1.0387,1.0382,1.0374,1.0368,1.0353,1.0344,1.034,1.0331,1.0319,1.0309,1.0307,1.0302,1.0299,1.0297,1.0314,1.0316,1.0318,1.032,1.0299,1.0299,1.0281,1.028,1.028]},{"header":{"parameterUnit":"m.s-1","parameterCategory":1,"la1":30.2991,"la2":30.254,"lo1":-89.0895,"lo2":-89.0444,"dy":0.0017,"dx":0.0017,"nx":28,"ny":28,"refTime":"2023-11-03T03:00:00:Z","depth":0,"parameterNumber":3,"parameterNumberName":"V-component_of_WINDS"},"data":[0,0,0,0,0,0,0,0,0,0,0,0,0,0,0,0,0,0,0,0,0,0,0,0,0,0,0,0,0,0,0,0,0,0,0,0,0,0,0,0,0,0,0,0,0,0,0,0,0,0,0,0,0,0,0,0,0,0,-0.2189,-0.2189,0,-0.2236,-0.2237,-0.2237,-0.225,-0.225,-0.225,-0.225,-0.2301,-0.2302,-0.2304,0,0,0,0,0,0,0,0,0,0,0,0,0,-0.2113,-0.2114,-0.2189,-0.2189,-0.219,-0.2236,-0.2237,-0.2237,-0.225,-0.225,-0.225,-0.225,-0.23,-0.2302,-0.2304,0,0,0,0,0,0,0,0,0,0,0,0,0,-0.2152,-0.2115,-0.2189,-0.2202,-0.2204,-0.2236,-0.2237,-0.2237,-0.2251,-0.225,-0.225,-0.2249,-0.23,-0.2302,-0.2304,-0.2327,0,0,-0.2312,-0.2313,0,0,0,0,0,0,0,0,-0.215,-0.2155,-0.2199,-0.2201,-0.2203,-0.2237,-0.2229,-0.2268,-0.2251,-0.2233,-0.225,-0.2249,-0.228,-0.2284,-0.2294,-0.233,-0.2332,-0.2312,-0.2313,-0.2314,-0.2315,0,0,0,0,0,0,0,-0.2147,-0.2153,-0.2208,-0.22,-0.2202,-0.2207,-0.2212,-0.2236,-0.2258,-0.2234,-0.2235,-0.2241,-0.2281,-0.2291,-0.2295,-0.2333,-0.2312,-0.2314,-0.2315,-0.2316,-0.2391,-0.2392,0,0,0,0,0,0,-0.2141,-0.215,-0.2206,-0.2209,-0.2175,-0.2208,-0.2214,-0.2226,-0.2258,-0.2262,-0.2241,-0.2241,-0.2288,-0.2292,-0.2297,-0.2327,-0.2314,-0.2317,-0.2318,-0.2391,-0.2392,-0.2392,0,0,0,0,0,0,-0.214,-0.2146,-0.2204,-0.218,-0.2188,-0.221,-0.2224,-0.2228,-0.2238,-0.2263,-0.2267,-0.2248,-0.2287,-0.2294,-0.232,-0.2329,-0.2318,-0.232,-0.239,-0.2391,-0.2392,-0.2387,0,0,0,0,0,0,-0.2138,-0.2146,-0.2154,-0.218,-0.2189,-0.2225,-0.2224,-0.2229,-0.2242,-0.2243,-0.227,-0.2274,-0.2288,-0.2316,-0.2322,-0.2332,-0.2322,-0.239,-0.2391,-0.2392,-0.2386,-0.2387,-0.2388,0,0,0,0,0,-0.2135,-0.2151,-0.2154,-0.2161,-0.2199,-0.2226,-0.2231,-0.2245,-0.2243,-0.2252,-0.2268,-0.2274,-0.2327,-0.2319,-0.2326,-0.2336,-0.2389,-0.239,-0.2392,-0.2386,-0.2387,-0.2388,0,0,0,0,0,0,-0.2126,-0.2154,-0.2158,-0.2183,-0.2202,-0.2228,-0.2239,-0.2246,-0.2266,-0.2266,-0.2283,-0.2289,-0.2315,-0.2328,-0.2319,-0.2361,-0.2358,-0.2361,-0.2351,-0.2353,-0.2354,-0.2351,-0.2324,0,0,0,0,0,-0.2126,-0.2144,-0.2169,-0.2188,-0.2197,-0.2217,-0.2229,-0.2238,-0.2258,-0.2267,-0.2285,-0.2305,-0.2327,-0.234,-0.2361,-0.2388,-0.2395,-0.2399,-0.24,-0.2401,-0.2403,-0.242,-0.2422,-0.2396,-0.2396,-0.2396,0,0,-0.2128,-0.2146,-0.2157,-0.2187,-0.2202,-0.2222,-0.2223,-0.2244,-0.2259,-0.227,-0.2296,-0.231,-0.2334,-0.2361,-0.2374,-0.2373,-0.2412,-0.2402,-0.2403,-0.2405,-0.2421,-0.2424,-0.2426,-0.2397,-0.2397,-0.2397,0,0,-0.2142,-0.2157,-0.2175,-0.2191,-0.2214,-0.2227,-0.2231,-0.2257,-0.2266,-0.2292,-0.2302,-0.232,-0.2356,-0.2374,-0.2387,-0.2408,-0.2415,-0.2415,-0.242,-0.2436,-0.2438,-0.244,-0.2449,-0.2452,-0.2417,-0.2417,-0.2417,0,-0.2142,-0.217,-0.2184,-0.2204,-0.2218,-0.2228,-0.2248,-0.2263,-0.2292,-0.2302,-0.23,-0.2347,-0.2363,-0.2395,-0.24,-0.241,-0.2417,-0.2412,-0.2437,-0.2439,-0.2441,-0.245,-0.2453,-0.2417,-0.2417,-0.2417,-0.2417,0,-0.217,-0.219,-0.2202,-0.2229,-0.2244,-0.2264,-0.2282,-0.2296,-0.2304,-0.2317,-0.2345,-0.2365,-0.2391,-0.2399,-0.2407,-0.2433,-0.2432,-0.2433,-0.2431,-0.2443,-0.2452,-0.2455,-0.2416,-0.2417,-0.2417,-0.2417,0,0,-0.2179,-0.2214,-0.2218,-0.2232,-0.2259,-0.2275,-0.2296,-0.232,-0.2332,-0.2352,-0.2371,-0.2402,-0.2404,-0.2419,-0.243,-0.2444,-0.2461,-0.2444,-0.2445,-0.2447,-0.2492,-0.2491,-0.2495,-0.2465,-0.2466,-0.2466,-0.249,0,-0.2197,-0.2233,-0.2247,-0.2277,-0.2297,-0.2307,-0.2326,-0.2345,-0.2358,-0.2378,-0.2393,-0.2415,-0.2415,-0.2424,-0.2438,-0.2456,-0.247,-0.2454,-0.2484,-0.2485,-0.2479,-0.2499,-0.2498,-0.252,-0.2493,-0.2494,-0.2494,0,-0.2223,-0.2243,-0.2275,-0.2301,-0.2309,-0.2325,-0.235,-0.2368,-0.239,-0.2399,-0.2416,-0.2426,-0.245,-0.2445,-0.2479,-0.2468,-0.2481,-0.2491,-0.2492,-0.2497,-0.2491,-0.2505,-0.2527,-0.2531,-0.25,-0.2499,-0.2499,0,-0.2228,-0.2263,-0.2287,-0.2298,-0.2328,-0.2339,-0.2353,-0.2374,-0.2389,-0.2411,-0.2421,-0.2445,-0.2458,-0.2478,-0.2494,-0.2489,-0.2527,-0.2523,-0.2537,-0.2536,-0.2545,-0.2544,-0.257,-0.2551,-0.2551,-0.2551,-0.2551,0,-0.2247,-0.2267,-0.229,-0.2305,-0.2328,-0.2343,-0.2366,-0.238,-0.24,-0.2419,-0.243,-0.2447,-0.2467,-0.2488,-0.2501,-0.2528,-0.2534,-0.2543,-0.2547,-0.2543,-0.2542,-0.2553,-0.2552,-0.2552,-0.2552,-0.2552,-0.2551,0,-0.2257,-0.2273,-0.23,-0.2326,-0.2334,-0.235,-0.2373,-0.2388,-0.2402,-0.2426,-0.2433,-0.2455,-0.248,-0.2498,-0.2531,-0.254,-0.2569,-0.2572,-0.2561,-0.2563,-0.2576,-0.2575,-0.2611,-0.2617,-0.2592,-0.2593,-0.2593,0,-0.2268,-0.2284,-0.2312,-0.2325,-0.2338,-0.2359,-0.2374,-0.239,-0.2405,-0.2433,-0.2446,-0.2471,-0.2493,-0.2533,-0.2553,-0.2578,-0.2583,-0.2593,-0.2587,-0.2583,-0.2585,-0.2584,-0.2586,-0.2595,-0.2595,-0.2595,-0.2595,0,-0.2288,-0.2295,-0.2316,-0.234,-0.2357,-0.2376,-0.2396,-0.2407,-0.2427,-0.2443,-0.2469,-0.2486,-0.2519,-0.2545,-0.2573,-0.2588,-0.2596,-0.2597,-0.2602,-0.2599,-0.2593,-0.2598,-0.2566,-0.2596,-0.2596,-0.2596,-0.2596,-0.2596,-0.23,-0.2315,-0.2337,-0.236,-0.2377,-0.2395,-0.2411,-0.2427,-0.2449,-0.2477,-0.2485,-0.2512,-0.2536,-0.2573,-0.2589,-0.2611,-0.2611,-0.2617,-0.2619,-0.2621,-0.2621,-0.2588,-0.2616,-0.2616,-0.2616,-0.2616,-0.2616,0,-0.2321,-0.2336,-0.2357,-0.2384,-0.2403,-0.2407,-0.243,-0.2445,-0.2469,-0.2489,-0.2511,-0.2541,-0.2566,-0.2588,-0.2615,-0.2629,-0.2634,-0.2636,-0.2636,-0.2639,-0.2619,-0.2613,-0.2632,-0.2632,-0.2632,-0.2632,-0.2632,-0.2632,-0.2335,-0.236,-0.2371,-0.2405,-0.242,-0.2446,-0.2459,-0.2477,-0.2493,-0.2526,-0.2548,-0.2561,-0.2583,-0.2612,-0.2636,-0.2642,-0.2652,-0.2654,-0.2661,-0.2642,-0.264,-0.2639,-0.2633,-0.2656,-0.2656,-0.268,-0.268,-0.268]}]]